Find Starlink 31592

NORAD ID: 59467 Int'l Des: 2024-068 Owner: SPXS Country: US Constellation: starlink operational
LEOCIRCULAR

Live Position

Loading 3D Globe...

About Starlink 31592

Description loading...

Upcoming Passes

Passes for default location (London). Set your location on the main map for personalized predictions.

Altitude History

Loading altitude history...

Two-Line Element Set

1 59467U 24068N 26110.43219323 -.00000918 00000-0 -23847-4 0 9996
2 59467 43.0016 159.0442 0001137 278.4627 81.6096 15.27568975114900
Epoch: Apr 20, 2026 • Age: 12 hours

Current Status

Altitude 483.1 km
Velocity 7.63 km/s
Sub-Earth Point 21.51°N, 132.45°E
Launch Date Apr 10, 2024
Age 2 years
Type internet

Technical Details

Classification Payload
Mass 730.00 kg
Dry Mass 700.00 kg
Total Mass 730.00 kg
Length 0.30 m
Diameter 4.10 m
Span 29.00 m
Shape Box + pan
Manufacturer SPXS
Bus Type Starlink V2M
Phase Status In Orbit
Owner/State SPXS/US

Most Searched